LiveATC.Net - Listen to live air traffic control over the Internet!


ICAO: KBMI  IATA: BMI   Airport: Central Illinois Regional Airport at Bloomington-Normal
City: Bloomington/Normal   State/Province: Illinois
Country: United States   Continent: North America
KBMI METAR Weather: KBMI 032156Z 18026G40KT 10SM CLR 22/09 A2973 RMK AO2 PK WND 18040/2150 SLP063 T02220089
KBMI ADS-B Flight Tracking  (ADSBExchange)
KBMI Flight Activity (FlightAware)
KBMI Airport Info   (iFlightPlanner)
KBMI VFR Sectional Chart   (iFlightPlanner) 
KBMI IFR Low Altitude Chart   (iFlightPlanner) 
KBMI IFR High Altitude Chart   (iFlightPlanner) 

ZAU Sector 45 Roberts High
Feed Status: UP   Listeners: 1
Listen in your browser - HTML5 player (in browser, HTML5)
Click here to listen with your own player (launches your MP3 player)
Archive Access: ZAU Sector 45 Roberts High
FacilityFrequency
Chicago Center (Roberts High Sector 45)124.800
Chicago Center (Roberts High Sector 45)134.025

ICAO: KDBQ  IATA: DBQ   Airport: Dubuque Regional Airport
City: Dubuque   State/Province: Iowa
Country: United States   Continent: North America
KDBQ METAR Weather: KDBQ 032153Z 18028G43KT 10SM CLR 24/08 A2949 RMK AO2 PK WND 16048/2104 SLP984 T02440083
KDBQ ADS-B Flight Tracking  (ADSBExchange)
KDBQ Flight Activity (FlightAware)
KDBQ Airport Info   (iFlightPlanner)
KDBQ VFR Sectional Chart   (iFlightPlanner) 
KDBQ IFR Low Altitude Chart   (iFlightPlanner) 
KDBQ IFR High Altitude Chart   (iFlightPlanner) 

ZAU Sector 63 #1
Feed Status: DOWN
Last heard on: 2024-03-03 03:29:05 (0 days 19 hours 1 minutes ago)
Archive Access: ZAU Sector 63 #1
FacilityFrequency
Chicago Center (Sector 63 Dubuque Low SFC to FL230)133.950

ZAU Sector 63 #2
Feed Status: UP   Listeners: 0
Listen in your browser - HTML5 player (in browser, HTML5)
Click here to listen with your own player (launches your MP3 player)
Archive Access: ZAU Sector 63 #2
FacilityFrequency
Chicago Center (Sector 63 Dubuque Low SFC to FL230)133.950

ZAU Sector 75 #1
Feed Status: DOWN
Last heard on: 2024-03-03 03:29:05 (0 days 19 hours 1 minutes ago)
Archive Access: ZAU Sector 75 #1
FacilityFrequency
Chicago Center (Sector 75 COTON Hi FL240-320)127.775

ZAU Sector 75 #2
Feed Status: UP   Listeners: 0
Listen in your browser - HTML5 player (in browser, HTML5)
Click here to listen with your own player (launches your MP3 player)
Archive Access: ZAU Sector 75 #2
FacilityFrequency
Chicago Center (Sector 75 COTON Hi FL240-320)118.425
Chicago Center (Sector 75 COTON Hi FL240-320)127.775

ZAU Sector 75/76
Feed Status: UP   Listeners: 0
Listen in your browser - HTML5 player (in browser, HTML5)
Click here to listen with your own player (launches your MP3 player)
Archive Access: ZAU Sector 75/76
FacilityFrequency
Chicago Center (Sector 75 COTON Hi FL240-320)118.425
Chicago Center (Sector 75 COTON Hi FL240-320)127.775
Chicago Center (Sector 76 Arlington Hi FL330-360)125.225

ZAU Sector 76 #1
Feed Status: DOWN
Last heard on: 2024-03-03 03:29:05 (0 days 19 hours 1 minutes ago)
Archive Access: ZAU Sector 76 #1
FacilityFrequency
Chicago Center (Sector 76 Arlington Hi FL330-360)125.225

ZAU Sector 76 #2
Feed Status: UP   Listeners: 0
Listen in your browser - HTML5 player (in browser, HTML5)
Click here to listen with your own player (launches your MP3 player)
Archive Access: ZAU Sector 76 #2
FacilityFrequency
Chicago Center (Sector 76 Arlington Hi FL330-360)125.225

ICAO: KFWA  IATA: FWA   Airport: Fort Wayne International Airport
City: Fort Wayne   State/Province: Indiana
Country: United States   Continent: North America
KFWA METAR Weather: KFWA 032154Z 17013G21KT 10SM SCT250 18/08 A2996 RMK AO2 SLP147 T01830078
KFWA ADS-B Flight Tracking  (ADSBExchange)
KFWA Flight Activity (FlightAware)
KFWA Webcam:  (Airport Webcams) 
KFWA Airport Info   (iFlightPlanner)
KFWA VFR Sectional Chart   (iFlightPlanner) 
KFWA IFR Low Altitude Chart   (iFlightPlanner) 
KFWA IFR High Altitude Chart   (iFlightPlanner) 

ZAU Sector 33
Feed Status: UP   Listeners: 2
Listen in your browser - HTML5 player (in browser, HTML5)
Click here to listen with your own player (launches your MP3 player)
Archive Access: ZAU Sector 33
FacilityFrequency
Chicago Center (Sector 33 BURBN Super Hi FL350/above)126.325

ZAU Sector 36
Feed Status: UP   Listeners: 1
Listen in your browser - HTML5 player (in browser, HTML5)
Click here to listen with your own player (launches your MP3 player)
Archive Access: ZAU Sector 36
FacilityFrequency
Chicago Center (Sector 36 Fort Wayne Hi FL240-340)124.825

ZAU Sector 37
Feed Status: UP   Listeners: 1
Listen in your browser - HTML5 player (in browser, HTML5)
Click here to listen with your own player (launches your MP3 player)
Archive Access: ZAU Sector 37
FacilityFrequency
Chicago Center (Sector 37 Wolf Lake Low SFC to FL230)119.850

ICAO: KGRR  IATA: GRR   Airport: Gerald R. Ford International Airport
City: Grand Rapids   State/Province: Michigan
Country: United States   Continent: North America
KGRR METAR Weather: KGRR 032153Z 15012G23KT 10SM BKN250 18/07 A2989 RMK AO2 PK WND 14026/2112 SLP124 T01780067
KGRR ADS-B Flight Tracking  (ADSBExchange)
KGRR Flight Activity (FlightAware)
KGRR Webcam:  
KGRR Airport Info   (iFlightPlanner)
KGRR VFR Sectional Chart   (iFlightPlanner) 
KGRR IFR Low Altitude Chart   (iFlightPlanner) 
KGRR IFR High Altitude Chart   (iFlightPlanner) 

ZAU Sector 22
Feed Status: UP   Listeners: 0
Listen in your browser - HTML5 player (in browser, HTML5)
Click here to listen with your own player (launches your MP3 player)
Archive Access: ZAU Sector 22
FacilityFrequency
Chicago Center (Sector 22 Sparta Low SFC to FL190)128.500

ZAU Sector 25
Feed Status: UP   Listeners: 0
Listen in your browser - HTML5 player (in browser, HTML5)
Click here to listen with your own player (launches your MP3 player)
Archive Access: ZAU Sector 25
FacilityFrequency
Chicago Center (Sector 25 Pullman Hi FL200-320)126.125

ICAO: KLOT  IATA: LOT   Airport: Lewis University Airport
City: Chicago/Romeoville   State/Province: Illinois
Country: United States   Continent: North America
KLOT METAR Weather: KLOT 032155Z 16021G40KT 10SM CLR 22/03 A2975
KLOT ADS-B Flight Tracking  (ADSBExchange)
KLOT Flight Activity (FlightAware)
KLOT Webcam:  
KLOT Airport Info   (iFlightPlanner)
KLOT VFR Sectional Chart   (iFlightPlanner) 
KLOT IFR Low Altitude Chart   (iFlightPlanner) 
KLOT IFR High Altitude Chart   (iFlightPlanner) 

ZAU Sector 51
Feed Status: UP   Listeners: 0
Listen in your browser - HTML5 player (in browser, HTML5)
Click here to listen with your own player (launches your MP3 player)
Archive Access: ZAU Sector 51
FacilityFrequency
Chicago Center (Sector 51 PLANO Low 11,000-FL230135.150

ICAO: KMKG  IATA: MKG   Airport: Muskegon County Airport
City: Muskegon   State/Province: Michigan
Country: United States   Continent: North America
KMKG METAR Weather: KMKG 032155Z 14015G23KT 10SM FEW250 21/06 A2984 RMK AO2 PK WND 15026/2115 SLP104 T02060061
KMKG ADS-B Flight Tracking  (ADSBExchange)
KMKG Flight Activity (FlightAware)
KMKG Webcam:  (Airport Webcams) 
KMKG Airport Info   (iFlightPlanner)
KMKG VFR Sectional Chart   (iFlightPlanner) 
KMKG IFR Low Altitude Chart   (iFlightPlanner) 
KMKG IFR High Altitude Chart   (iFlightPlanner) 

ZAU Sectors 24/25
Feed Status: UP   Listeners: 1
Listen in your browser - HTML5 player (in browser, HTML5)
Click here to listen with your own player (launches your MP3 player)
Archive Access: ZAU Sectors 24/25
FacilityFrequency
Chicago Center (Sector 24 Freemont Hi FL200-330)132.275
Chicago Center (Sector 25 Pullman Hi FL200-320)126.125

ICAO: KORD  IATA: ORD   Airport: Chicago O'Hare International Airport
City: Chicago   State/Province: Illinois
Country: United States   Continent: North America
KORD METAR Weather: KORD 032151Z 16020G35KT 10SM BKN250 22/04 A2972 RMK AO2 PK WND 17036/2130 SLP062 T02220039 $
KORD ADS-B Flight Tracking  (ADSBExchange)
KORD Flight Activity (FlightAware)
KORD Webcam:  
KORD Airport Info   (iFlightPlanner)
KORD VFR Sectional Chart   (iFlightPlanner) 
KORD IFR Low Altitude Chart   (iFlightPlanner) 
KORD IFR High Altitude Chart   (iFlightPlanner) 

ZAU Chicago Center (Sector 81 CRIBB Low) #1
Feed Status: UP   Listeners: 2
Listen in your browser - HTML5 player (in browser, HTML5)
Click here to listen with your own player (launches your MP3 player)
Archive Access: ZAU Chicago Center (Sector 81 CRIBB Low) #1
FacilityFrequency
Chicago Center (Sector 81 CRIBB Low)120.350

ZAU Chicago Center (Sector 81 CRIBB Low) #2
Feed Status: UP   Listeners: 1
Listen in your browser - HTML5 player (in browser, HTML5)
Click here to listen with your own player (launches your MP3 player)
Archive Access: ZAU Chicago Center (Sector 81 CRIBB Low) #2
FacilityFrequency
Chicago Center (Sector 81 CRIBB Low)120.350

ICAO: KOSH  IATA: OSH   Airport: Wittman Regional Airport
City: Oshkosh   State/Province: Wisconsin
Country: United States   Continent: North America
KOSH METAR Weather: KOSH 032153Z 14020G31KT 10SM CLR 17/08 A2958 RMK AO2 PK WND 14033/2134 SLP015 T01720078 $
KOSH ADS-B Flight Tracking  (ADSBExchange)
KOSH Flight Activity (FlightAware)
KOSH Webcam:  (Airport Webcams) 
KOSH Airport Info   (iFlightPlanner)
KOSH VFR Sectional Chart   (iFlightPlanner) 
KOSH IFR Low Altitude Chart   (iFlightPlanner) 
KOSH IFR High Altitude Chart   (iFlightPlanner) 

ZAU Chicago Center (Lone Rock, Low)
Feed Status: UP   Listeners: 0
Listen in your browser - HTML5 player (in browser, HTML5)
Click here to listen with your own player (launches your MP3 player)
Archive Access: ZAU Chicago Center (Lone Rock, Low)
FacilityFrequency
Chicago Center (Lone Rock, Low)132.100
Chicago Center (Lone Rock, Low)133.300

ICAO: KOTM  IATA: OTM   Airport: Ottumwa Regional Airport
City: Ottumwa   State/Province: Iowa
Country: United States   Continent: North America
KOTM METAR Weather: KOTM 032153Z AUTO 22023G43KT 10SM CLR 26/06 A2952 RMK AO2 PK WND 19043/2150 SLP991 T02610056 $
KOTM ADS-B Flight Tracking  (ADSBExchange)
KOTM Flight Activity (FlightAware)
KOTM Webcam:  
KOTM Airport Info   (iFlightPlanner)
KOTM VFR Sectional Chart   (iFlightPlanner) 
KOTM IFR Low Altitude Chart   (iFlightPlanner) 
KOTM IFR High Altitude Chart   (iFlightPlanner) 

KOTM Del/Twr/App/Center
Feed Status: UP   Listeners: 4
Listen in your browser - HTML5 player (in browser, HTML5)
Click here to listen with your own player (launches your MP3 player)
Archive Access: KOTM Del/Twr/App/Center
FacilityFrequency
Cedar Rapids Approach119.700
Cedar Rapids Approach134.050
Cedar Rapids Clearance Delivery125.450
Cedar Rapids Tower118.700
Cedar Rapids UNICOM122.950
Chicago Center118.150
Chicago Center (Sector 55 Burlington Low)135.600
Chicago Center (Sector 56 Ottumwa Low SFC to FL230)132.800
Chicago Center (Sector 74 FARMM Low)133.350
Chicago Center (Sector 91 Hanna City Super Hi)134.325
Des Moines Approach118.600
Des Moines Approach123.900
Des Moines Approach135.200
Des Moines Tower118.300
Emergency/Guard121.500
Kansas City Center132.600
KIRK Kirksville, MO CTAF122.800
Minneapolis Center118.825
Minneapolis Center (Sector 27 Low)125.650
Minneapolis Center (Sector 30 High)135.775
Ottumwa CTAF/UNICOM123.000
Sponsored by: Kevin Jarvis

ICAO: KRFD  IATA: RFD   Airport: Chicago/Rockford International Airport
City: Rockford   State/Province: Illinois
Country: United States   Continent: North America
KRFD METAR Weather: KRFD 032154Z 16023G39KT 10SM BKN250 23/07 A2964 RMK AO2 PK WND 14040/2126 SLP035 T02330072
KRFD ADS-B Flight Tracking  (ADSBExchange)
KRFD Flight Activity (FlightAware)
KRFD Webcam:  
KRFD Airport Info   (iFlightPlanner)
KRFD VFR Sectional Chart   (iFlightPlanner) 
KRFD IFR Low Altitude Chart   (iFlightPlanner) 
KRFD IFR High Altitude Chart   (iFlightPlanner) 

ZAU Sector 92 (HAWKS)
Feed Status: UP   Listeners: 0
Listen in your browser - HTML5 player (in browser, HTML5)
Click here to listen with your own player (launches your MP3 player)
Archive Access: ZAU Sector 92 (HAWKS)
FacilityFrequency
Chicago Center120.375
Chicago Center (Sector 92 HAWKS Hi FL240-320)124.725

NOTICE

Unauthorized use prohibited. See LiveATC.net Terms of Service


Airport/ARTCC Code
Frequency Search
(e.g., 124.400, 128.75)
Site-wide search
 


Browse Feeds
Top 50 Feeds
HF Oceanic Feeds
Coverage Map
Bad Weather Areas

LiveATC FAQ

Increase Coverage

Contact LiveATC.net
Press Inquiries

LiveATC on iPhone
LiveATC on Android

LiveATC Mobile
(Mobile browser)

ATC Audio Archives
Interesting Recordings

LiveATC Forums


Home Page
About LiveATC.net


Terms of Use
Privacy Policy

AIRMETs/SIGMETs

FAA Airport Status
NAS Status
Arrival Demand


Server Software By:
Icecast.org
Liquidsoap